Location: 22
(39.7117°N, 89.5929°W)
Time: 19:36:55
(UTC-05:00)

Vanguard 3 - Pass Details

Date: 31 January 2023
Orbit: 508 x 3249 km, 33.4° (Epoch: 30 March)

Event Time Altitude Azimuth Distance (km) Brightness Sun altitude
Rises 23:10:31 0° 274° (W) 5,731 11.7 -63.8°
Reaches altitude 10° 23:13:49 10° 271° (W) 5,025 11.3 -64.2°
Enters shadow 23:16:49 20° 267° (W) 4,450 10.9 -64.5°
Maximum altitude 23:29:30 63° 196° (SSW) 3,354 - -65.7°
Drops below altitude 10° 23:48:57 10° 121° (ESE) 6,059 - -66.9°
Sets 23:53:25 0° 119° (ESE) 6,917 - -67.1°
